Weerawila Airport

Jump to: basic info | weather | frequencies | runways | comments

Related pages: nearby airports | nearby navaids | notams | map

Basic information (top)

Codes: WRZ VCCW
Location: lon 6.254490, lat 81.235199, elev 50 ft / 15 m msl
Status: small_airport
Scheduled airline service: yes
Links: Wikipedia Mobile

Weather (top)

Current conditions for Mattala Rajapaksa International Airport 7nm (13km) SW (rec'd 2014/07/22 17:10Z):

VCRI 221710Z 24010KT 9999 FEW016 SCT080 28/22 Q1010 NOSIG

Airport forecast for Bandaranaike International Colombo Airport 98nm (181km) NW (rec'd 2014/07/22 12:00Z):

TAF VCBI 220940Z 2212/2318 23010KT 9999 SCT016 TX30/2308Z TN27/2300Z PROB40 
      TEMPO 2220/2303 7000 -SHRA SCT010 BKN016 
      TEMPO 2306/2310 BKN016 FEW018CB

Frequencies (top)

Verify before use: may be inaccurate or out of date.

TWR: 118.1 MHz (TWR)

Runways (top)

07/25: 4,000 x 93 ft (1,219 x 28 m) — paved — not lighted

Latest comments (top)

No comments yet for Weerawila Airport

More... (top)

See also NOTAMs and nearby airports and navaids, or visit the Weerawila Airport page at the main OurAirports website..